Regional Weather Roundup
Issued by NWS Portland, ME

Current Version | Previous Version | Text Only | Print | Product List | Glossary Off
Versions: 1 2 3 4 5 6 7 8 9 10 11 12 13 14 15 16 17 18 19 20 21 22 23 24 25 26 27 28 29 30 31 32 33 34 35 36 37 38 39 40 41 42 43 44 45 46 47 48 49 50
671 ASUS41 KGYX 251105 RWRGYX WEATHER ROUNDUP FOR MAINE AND NEW HAMPSHIRE NATIONAL WEATHER SERVICE GRAY ME 700 AM EDT SAT MAR 25 2017 MEZ002-005-006-010-012-015-018-020-021-024-026-027-029-251200- MAINE CITY SKY/WX TMP DP RH WIND PRES REMARKS PORTLAND CLOUDY 35 31 85 N5 30.14R SANFORD CLOUDY 33 32 96 CALM 30.14R FOG BAR HARBOR CLEAR 28 27 96 CALM 30.15R WISCASSET CLOUDY 34 31 88 VRB3 30.15R ROCKLAND PTCLDY 34 28 79 N8 30.14R FRYEBURG CLOUDY 24 23 96 W3 30.14R LEWISTONAUBURN CLOUDY 31 30 96 N5 30.15R AUGUSTA CLOUDY 26 24 92 N5 30.14R FOG BANGOR MOCLDY 28 26 92 NW5 30.14R GREENVILLE N/A 27 25 92 NW10 30.07R WCI 17 MILLINOCKET CLOUDY 29 25 85 NW12 30.12R WCI 19 HOULTON CLEAR 28 23 81 NW6 30.07R PRESQUE ISLE CLOUDY 29 24 82 W10 30.09R WCI 20 FRENCHVILLE CLOUDY 29 20 69 N12 30.06R WCI 19 CARIBOU CLOUDY 28 22 78 W3 30.06R $$ NHZ002-005-008-009-011-012-014-251200- NEW HAMPSHIRE CITY SKY/WX TMP DP RH WIND PRES REMARKS PORTSMOUTH CLOUDY 35 34 96 CALM 30.12R FOG ROCHESTER CLOUDY 35 32 88 CALM 30.12R FOG NASHUA FOG 35 35 100 CALM 30.15R VSB 1 MANCHESTER CLOUDY 37 33 85 CALM 30.13R CONCORD CLOUDY 35 33 92 NW9 30.14R LACONIA CLOUDY 33 32 96 CALM 30.13R PLYMOUTH MOCLDY 34 32 92 NW5 30.16R BERLIN CLOUDY 32 26 78 NW3 30.14R WHITEFIELD CLOUDY 30 26 85 NE3 30.15R JAFFREY CLOUDY 35 35 100 CALM 30.11R FOG KEENE LGT RAIN 34 33 96 S5 30.14R FOG LEBANON CLOUDY 34 32 92 N5 30.16R FOG MT WASHINGTON MOCLDY 19 18 93 NW37 N/A WCI -1 $$ VTZ005-007-008-251200- VERMONT CITY SKY/WX TMP DP RH WIND PRES REMARKS ST JOHNSBURY N/A 30 29 96 MISG 30.16R MONTPELIER CLOUDY 30 30 100 NE5 30.19R BURLINGTON CLOUDY 33 31 92 N6 30.22R $$ MAZ007-012-024-CTZ003-RIZ002-NYZ038-NYZ072-251200- SOUTHERN NEW ENGLAND AND NY CITY SKY/WX TMP DP RH WIND PRES REMARKS BOSTON LGT RAIN 43 37 79 N7 30.15R WORCESTER LGT RAIN 41 32 70 N3 30.11R NANTUCKET CLOUDY 44 39 82 W10 30.11R PROVIDENCE MOCLDY 44 35 70 CALM 30.12R HARTFORD CLOUDY 38 34 85 NW3 30.12R ALBANY CLOUDY 37 33 85 N8 30.17R FOG NEW YORK CITY CLOUDY 55 38 52 VRB3 30.12R $$ ANZ081-ANZ082-ANZ150-NHZ014-MEZ023>029-251200- COASTAL MARINE OBSERVATIONS STATION/POSITION TIME TEMP WIND PRES WAVE AIR SEA DIR/SP/G HT/PER (UTC) (F) (DEG/KT/KT) (MB) (FT/S) MOUNT DESERT ROC 1100 34 1020.4R MATINICUS ROCK 1000 35 350/ 17/ 18 1018.8R ISLE OF SHOALS 1000 37 70/ 6/ 7 1019.8R JEFFREYS LEDGE 1006 40 N/A 3/ 6 CASHES LEDGE BUO 0950 37 40 1019.5 4/ 7 GEORGES BANK BUO 0950 43 40 1018.8 6/ 7 $$ .............KEY.............. WCI - WIND CHILL TC - TEMPERATURE IN CELSIUS VSB - VISIBILITY IN MILES HX - HEAT INDEX FAIR- INDICATES FEW OR NO CLOUDS BELOW 12,000 FT, WITH NO SIGNIFICANT WEATHER AND/OR OBSTRUCTIONS TO VISIBILITY.

USA.gov is the U.S. government's official web portal to all federal, state and local government web resources and services.